| time (UTC) | temp F | wind direction | speed MPH | gust MPH | rain 1hr in | rain 24hr in | rain mn in | humidity % | barometer mb |
| 20260503230544 | 69 | 0 | 0.0 | 1.0 | 0.00 | 0.03 | 0.01 | 97 | 1019.8 |
| 20260503230052 | 68 | 0 | 0.0 | 1.0 | 0.00 | 0.03 | 0.01 | 97 | 1019.8 |
| 20260503225543 | 68 | 0 | 0.0 | 1.0 | 0.00 | 0.03 | 0.01 | 98 | 1020.0 |
| 20260503225042 | 67 | 337 | 0.0 | 1.0 | 0.00 | 0.03 | 0.01 | 98 | 1019.8 |
| 20260503224558 | 67 | 0 | 0.0 | 1.0 | 0.00 | 0.03 | 0.01 | 98 | 1019.9 |
| 20260503224043 | 66 | 292 | 0.0 | 1.0 | 0.00 | 0.03 | 0.01 | 98 | 1019.8 |
| 20260503223543 | 66 | 287 | 0.0 | 1.0 | 0.00 | 0.03 | 0.01 | 99 | 1019.9 |
| 20260503223054 | 65 | 0 | 0.0 | 1.0 | 0.00 | 0.03 | 0.01 | 99 | 1019.8 |
| 20260503222542 | 65 | 271 | 0.0 | 1.0 | 0.00 | 0.03 | 0.01 | 98 | 1020.0 |
| 20260503222043 | 65 | 0 | 0.0 | 1.0 | 0.00 | 0.03 | 0.01 | 98 | 1019.9 |
| 20260503221559 | 64 | 295 | 0.0 | 1.0 | 0.00 | 0.03 | 0.01 | 98 | 1019.9 |
| 20260503221046 | 65 | 0 | 0.0 | 0.0 | 0.00 | 0.03 | 0.01 | 99 | 1019.8 |
| 20260503220543 | 65 | 0 | 0.0 | 0.0 | 0.00 | 0.03 | 0.01 | 99 | 1019.8 |
| 20260503220052 | 64 | 0 | 0.0 | 0.0 | 0.00 | 0.03 | 0.01 | 99 | 1019.8 |
| 20260503215543 | 64 | 0 | 0.0 | 0.0 | 0.00 | 0.03 | 0.01 | 98 | 1019.8 |
| 20260503215043 | 64 | 0 | 0.0 | 0.0 | 0.00 | 0.03 | 0.01 | 98 | 1019.8 |
| 20260503214551 | 64 | 0 | 0.0 | 0.0 | 0.00 | 0.03 | 0.01 | 99 | 1019.7 |
| 20260503214043 | 63 | 0 | 0.0 | 0.0 | 0.00 | 0.03 | 0.01 | 98 | 1019.7 |
| 20260503213543 | 63 | 0 | 0.0 | 0.0 | 0.00 | 0.03 | 0.01 | 98 | 1019.6 |
| 20260503213050 | 63 | 0 | 0.0 | 0.0 | 0.00 | 0.02 | 0.00 | 98 | 1019.6 |
| 20260503212543 | 63 | 0 | 0.0 | 0.0 | 0.00 | 0.02 | 0.00 | 98 | 1019.7 |
| 20260503212043 | 63 | 0 | 0.0 | 0.0 | 0.00 | 0.02 | 0.00 | 98 | 1019.6 |
| 20260503211556 | 62 | 0 | 0.0 | 0.0 | 0.00 | 0.02 | 0.00 | 98 | 1019.7 |
| 20260503211044 | 62 | 0 | 0.0 | 0.0 | 0.00 | 0.02 | 0.00 | 98 | 1019.6 |
| 20260503210544 | 62 | 0 | 0.0 | 0.0 | 0.00 | 0.02 | 0.00 | 98 | 1019.7 |
| 20260503210050 | 62 | 0 | 0.0 | 0.0 | 0.00 | 0.02 | 0.00 | 98 | 1019.5 |
| 20260503205543 | 62 | 0 | 0.0 | 0.0 | 0.00 | 0.02 | 0.00 | 98 | 1019.5 |
| 20260503205043 | 62 | 0 | 0.0 | 0.0 | 0.00 | 0.02 | 0.00 | 98 | 1019.4 |
| 20260503204614 | 62 | 0 | 0.0 | 0.0 | 0.00 | 0.02 | 0.00 | 98 | 1019.4 |
| 20260503204044 | 62 | 0 | 0.0 | 0.0 | 0.00 | 0.02 | 0.00 | 98 | 1019.3 |
| 20260503203543 | 62 | 0 | 0.0 | 0.0 | 0.00 | 0.02 | 0.00 | 98 | 1019.3 |
| 20260503203100 | 62 | 0 | 0.0 | 0.0 | 0.00 | 0.01 | 0.00 | 98 | 1019.2 |
| 20260503202545 | 62 | 0 | 0.0 | 0.0 | 0.00 | 0.01 | 0.00 | 98 | 1019.0 |
| 20260503202043 | 62 | 0 | 0.0 | 0.0 | 0.00 | 0.01 | 0.00 | 98 | 1019.0 |
| 20260503201555 | 62 | 0 | 0.0 | 0.0 | 0.00 | 0.01 | 0.00 | 98 | 1018.9 |
| 20260503201043 | 61 | 0 | 0.0 | 0.0 | 0.00 | 0.01 | 0.00 | 98 | 1018.9 |
| 20260503200543 | 62 | 0 | 0.0 | 0.0 | 0.00 | 0.01 | 0.00 | 98 | 1018.8 |
| 20260503200050 | 62 | 0 | 0.0 | 0.0 | 0.00 | 0.01 | 0.00 | 98 | 1018.7 |
| 20260503195543 | 62 | 0 | 0.0 | 0.0 | 0.00 | 0.01 | 0.00 | 98 | 1018.7 |
| 20260503195042 | 62 | 0 | 0.0 | 0.0 | 0.00 | 0.01 | 0.00 | 98 | 1018.7 |
| 20260503194555 | 62 | 0 | 0.0 | 0.0 | 0.00 | 0.01 | 0.00 | 98 | 1018.7 |
| 20260503194043 | 62 | 0 | 0.0 | 0.0 | 0.00 | 0.01 | 0.00 | 98 | 1018.7 |
| 20260503193543 | 62 | 0 | 0.0 | 0.0 | 0.00 | 0.01 | 0.00 | 98 | 1018.6 |
| 20260503193059 | 62 | 0 | 0.0 | 0.0 | 0.00 | 0.01 | 0.00 | 98 | 1018.7 |
| 20260503192542 | 61 | 0 | 0.0 | 0.0 | 0.00 | 0.01 | 0.00 | 98 | 1018.6 |
| 20260503192044 | 62 | 0 | 0.0 | 0.0 | 0.00 | 0.01 | 0.00 | 98 | 1018.5 |
| 20260503191608 | 62 | 0 | 0.0 | 0.0 | 0.00 | 0.01 | 0.00 | 98 | 1018.5 |
| 20260503191044 | 62 | 0 | 0.0 | 0.0 | 0.00 | 0.01 | 0.00 | 98 | 1018.5 |
| 20260503190543 | 62 | 0 | 0.0 | 0.0 | 0.00 | 0.01 | 0.00 | 98 | 1018.4 |
| 20260503190048 | 62 | 0 | 0.0 | 0.0 | 0.00 | 0.01 | 0.00 | 98 | 1018.4 |
| 20260503185543 | 62 | 0 | 0.0 | 0.0 | 0.00 | 0.01 | 0.00 | 98 | 1018.5 |
| 20260503185043 | 62 | 0 | 0.0 | 0.0 | 0.00 | 0.01 | 0.00 | 98 | 1018.6 |
| 20260503184553 | 62 | 0 | 0.0 | 0.0 | 0.00 | 0.01 | 0.00 | 98 | 1018.4 |
| 20260503184046 | 62 | 0 | 0.0 | 0.0 | 0.00 | 0.01 | 0.00 | 98 | 1018.5 |
| 20260503183543 | 62 | 0 | 0.0 | 0.0 | 0.00 | 0.01 | 0.00 | 98 | 1018.5 |
| 20260503183052 | 62 | 0 | 0.0 | 0.0 | 0.00 | 0.01 | 0.00 | 98 | 1018.6 |
| 20260503182542 | 62 | 0 | 0.0 | 0.0 | 0.00 | 0.01 | 0.00 | 98 | 1018.5 |
| 20260503182048 | 62 | 0 | 0.0 | 0.0 | 0.00 | 0.01 | 0.00 | 98 | 1018.5 |
| 20260503181552 | 62 | 0 | 0.0 | 0.0 | 0.00 | 0.01 | 0.00 | 98 | 1018.4 |
| 20260503181043 | 62 | 0 | 0.0 | 0.0 | 0.00 | 0.01 | 0.00 | 98 | 1018.6 |
| 20260503180546 | 62 | 0 | 0.0 | 0.0 | 0.00 | 0.01 | 0.00 | 98 | 1018.5 |
| 20260503180057 | 62 | 0 | 0.0 | 0.0 | 0.00 | 0.01 | 0.00 | 98 | 1018.5 |
| 20260503175542 | 62 | 0 | 0.0 | 0.0 | 0.00 | 0.02 | 0.00 | 98 | 1018.4 |
| 20260503175042 | 62 | 0 | 0.0 | 0.0 | 0.00 | 0.02 | 0.00 | 98 | 1018.5 |
| 20260503174552 | 62 | 0 | 0.0 | 0.0 | 0.00 | 0.02 | 0.00 | 98 | 1018.6 |
| 20260503174044 | 62 | 0 | 0.0 | 0.0 | 0.00 | 0.02 | 0.00 | 98 | 1018.5 |
| 20260503173544 | 62 | 0 | 0.0 | 0.0 | 0.00 | 0.02 | 0.00 | 98 | 1018.5 |
| 20260503173048 | 62 | 0 | 0.0 | 0.0 | 0.00 | 0.02 | 0.00 | 98 | 1018.6 |
| 20260503172542 | 62 | 0 | 0.0 | 0.0 | 0.00 | 0.02 | 0.00 | 98 | 1018.5 |
| 20260503172056 | 62 | 0 | 0.0 | 0.0 | 0.00 | 0.02 | 0.00 | 98 | 1018.6 |
| 20260503171550 | 62 | 0 | 0.0 | 0.0 | 0.00 | 0.02 | 0.00 | 98 | 1018.6 |
| 20260503171043 | 62 | 0 | 0.0 | 0.0 | 0.00 | 0.02 | 0.00 | 98 | 1018.6 |
| 20260503170544 | 62 | 0 | 0.0 | 0.0 | 0.00 | 0.02 | 0.00 | 98 | 1018.6 |
| 20260503150543 | 63 | 0 | 0.0 | 0.0 | 0.00 | 0.02 | 0.00 | 97 | 1019.9 |
| 20260503131044 | 63 | 0 | 0.0 | 1.0 | 0.01 | 0.02 | 0.02 | 97 | 1020.5 |
| 20260503130544 | 63 | 302 | 0.0 | 1.0 | 0.01 | 0.02 | 0.02 | 97 | 1020.5 |
| 20260503110546 | 63 | 0 | 0.0 | 1.0 | 0.00 | 0.00 | 0.00 | 95 | 1020.8 |
| 20260503081551 | 69 | 0 | 0.0 | 1.0 | 0.00 | 0.01 | 0.00 | 84 | 1020.3 |
| 20260503081044 | 70 | 0 | 0.0 | 1.0 | 0.00 | 0.01 | 0.00 | 84 | 1020.1 |
| 20260503080547 | 70 | 0 | 0.0 | 1.0 | 0.00 | 0.01 | 0.00 | 84 | 1020.1 |
| 20260503072542 | 71 | 81 | 0.0 | 4.0 | 0.00 | 0.01 | 0.00 | 81 | 1019.7 |
| 20260503072046 | 71 | 0 | 0.0 | 4.0 | 0.00 | 0.01 | 0.00 | 80 | 1019.6 |
| 20260503071556 | 72 | 101 | 0.0 | 2.0 | 0.00 | 0.01 | 0.00 | 79 | 1019.6 |
| 20260503071043 | 72 | 0 | 0.0 | 4.0 | 0.00 | 0.01 | 0.00 | 78 | 1019.6 |
| 20260503070544 | 72 | 107 | 0.0 | 4.0 | 0.00 | 0.01 | 0.00 | 77 | 1019.6 |
| 20260503055043 | 75 | 76 | 1.0 | 4.0 | 0.00 | 0.03 | 0.00 | 70 | 1019.4 |
| 20260503054609 | 75 | 103 | 1.0 | 6.0 | 0.00 | 0.03 | 0.00 | 69 | 1019.4 |
| 20260503054047 | 75 | 149 | 1.0 | 9.0 | 0.00 | 0.03 | 0.00 | 69 | 1019.4 |
| 20260503053544 | 75 | 92 | 3.0 | 9.0 | 0.00 | 0.03 | 0.00 | 69 | 1019.4 |
| 20260503053055 | 75 | 180 | 2.0 | 4.0 | 0.00 | 0.03 | 0.00 | 71 | 1019.3 |
| 20260503052543 | 75 | 356 | 1.0 | 5.0 | 0.00 | 0.03 | 0.00 | 72 | 1019.3 |
| 20260503052044 | 75 | 60 | 2.0 | 6.0 | 0.00 | 0.03 | 0.00 | 71 | 1019.4 |
| 20260503051552 | 75 | 359 | 2.0 | 7.0 | 0.00 | 0.03 | 0.00 | 71 | 1019.4 |
| 20260503051044 | 75 | 90 | 2.0 | 7.0 | 0.00 | 0.03 | 0.00 | 71 | 1019.3 |
| 20260503050544 | 75 | 80 | 2.0 | 7.0 | 0.00 | 0.03 | 0.00 | 71 | 1019.3 |
| 20260503050055 | 75 | 92 | 2.0 | 6.0 | 0.00 | 0.03 | 0.00 | 70 | 1019.3 |
| 20260503045547 | 75 | 117 | 2.0 | 10.0 | 0.00 | 0.03 | 0.00 | 70 | 1019.3 |
| 20260503045044 | 76 | 150 | 3.0 | 12.0 | 0.00 | 0.03 | 0.00 | 68 | 1019.3 |
| 20260503044548 | 77 | 165 | 6.0 | 12.0 | 0.00 | 0.03 | 0.00 | 68 | 1019.1 |
| 20260503044043 | 77 | 174 | 3.0 | 7.0 | 0.00 | 0.03 | 0.00 | 69 | 1019.3 |
| 20260503043545 | 77 | 74 | 1.0 | 7.0 | 0.00 | 0.03 | 0.00 | 68 | 1019.3 |
| 20260503043056 | 76 | 217 | 2.0 | 7.0 | 0.00 | 0.03 | 0.00 | 69 | 1019.4 |
| 20260503042544 | 76 | 105 | 2.0 | 7.0 | 0.00 | 0.03 | 0.00 | 68 | 1019.3 |
| 20260503042043 | 77 | 105 | 3.0 | 8.0 | 0.00 | 0.03 | 0.00 | 66 | 1019.3 |
| 20260503041552 | 77 | 136 | 1.0 | 8.0 | 0.00 | 0.03 | 0.00 | 68 | 1019.1 |
| 20260503041048 | 77 | 160 | 3.0 | 8.0 | 0.00 | 0.03 | 0.00 | 66 | 1019.1 |
| 20260503040543 | 77 | 114 | 2.0 | 5.0 | 0.00 | 0.03 | 0.00 | 69 | 1019.3 |
| 20260503040055 | 77 | 51 | 2.0 | 6.0 | 0.00 | 0.03 | 0.00 | 69 | 1019.4 |
| 20260503035544 | 76 | 174 | 2.0 | 10.0 | 0.00 | 0.03 | 0.00 | 70 | 1019.5 |
| 20260503035044 | 76 | 155 | 4.0 | 10.0 | 0.00 | 0.03 | 0.00 | 71 | 1019.4 |
| 20260503034555 | 76 | 89 | 2.0 | 6.0 | 0.00 | 0.03 | 0.00 | 70 | 1019.4 |
| 20260503034042 | 76 | 0 | 1.0 | 6.0 | 0.00 | 0.03 | 0.00 | 72 | 1019.4 |
| 20260503033543 | 76 | 109 | 2.0 | 8.0 | 0.00 | 0.03 | 0.00 | 71 | 1019.4 |
| 20260503033058 | 76 | 184 | 3.0 | 8.0 | 0.00 | 0.03 | 0.00 | 71 | 1019.5 |
| 20260503032543 | 77 | 84 | 2.0 | 6.0 | 0.00 | 0.03 | 0.00 | 71 | 1019.5 |
| 20260503032043 | 76 | 74 | 1.0 | 13.0 | 0.00 | 0.03 | 0.00 | 72 | 1019.5 |
| 20260503031609 | 76 | 121 | 4.0 | 13.0 | 0.00 | 0.03 | 0.00 | 72 | 1019.6 |
| 20260503031044 | 76 | 184 | 4.0 | 12.0 | 0.00 | 0.03 | 0.00 | 71 | 1019.7 |
| 20260503030544 | 77 | 154 | 3.0 | 9.0 | 0.00 | 0.03 | 0.00 | 70 | 1019.8 |
| 20260503030055 | 77 | 25 | 2.0 | 9.0 | 0.00 | 0.03 | 0.00 | 70 | 1019.7 |
| 20260503025543 | 77 | 81 | 4.0 | 9.0 | 0.00 | 0.03 | 0.00 | 68 | 1019.7 |
| 20260503025044 | 78 | 181 | 3.0 | 7.0 | 0.00 | 0.03 | 0.00 | 71 | 1019.8 |
| 20260503024555 | 77 | 51 | 2.0 | 8.0 | 0.00 | 0.03 | 0.00 | 71 | 1019.9 |
| 20260503024045 | 76 | 304 | 2.0 | 9.0 | 0.00 | 0.03 | 0.00 | 72 | 1020.0 |
| 20260503023545 | 76 | 102 | 2.0 | 9.0 | 0.00 | 0.03 | 0.00 | 72 | 1020.1 |
| 20260503023059 | 75 | 152 | 1.0 | 9.0 | 0.00 | 0.03 | 0.00 | 71 | 1020.2 |
| 20260503022543 | 75 | 111 | 2.0 | 8.0 | 0.00 | 0.03 | 0.00 | 72 | 1020.2 |
| 20260503022045 | 76 | 80 | 3.0 | 8.0 | 0.00 | 0.03 | 0.00 | 71 | 1020.4 |
| 20260503021553 | 76 | 62 | 3.0 | 8.0 | 0.00 | 0.03 | 0.00 | 71 | 1020.3 |
| 20260503021044 | 77 | 127 | 2.0 | 8.0 | 0.00 | 0.03 | 0.00 | 70 | 1020.4 |
| 20260503020545 | 76 | 8 | 3.0 | 8.0 | 0.00 | 0.03 | 0.00 | 71 | 1020.5 |
| 20260503020053 | 76 | 132 | 3.0 | 5.0 | 0.00 | 0.03 | 0.00 | 72 | 1020.7 |
| 20260503015546 | 76 | 120 | 2.0 | 6.0 | 0.00 | 0.03 | 0.00 | 75 | 1020.7 |
| 20260503015043 | 75 | 128 | 3.0 | 6.0 | 0.00 | 0.03 | 0.00 | 75 | 1020.7 |
| 20260503014600 | 75 | 34 | 2.0 | 8.0 | 0.00 | 0.03 | 0.00 | 75 | 1020.8 |
| 20260503014043 | 74 | 195 | 2.0 | 10.0 | 0.00 | 0.03 | 0.00 | 76 | 1020.9 |
| 20260503013544 | 74 | 103 | 3.0 | 10.0 | 0.00 | 0.03 | 0.00 | 76 | 1020.9 |
| 20260503013050 | 74 | 153 | 3.0 | 7.0 | 0.00 | 0.03 | 0.00 | 76 | 1021.2 |
| 20260503012544 | 74 | 172 | 2.0 | 6.0 | 0.00 | 0.03 | 0.00 | 77 | 1021.3 |
| 20260503012043 | 74 | 176 | 3.0 | 6.0 | 0.00 | 0.03 | 0.00 | 78 | 1021.5 |
| 20260503011553 | 74 | 134 | 2.0 | 6.0 | 0.00 | 0.03 | 0.00 | 77 | 1021.6 |
| 20260503011048 | 74 | 179 | 2.0 | 6.0 | 0.00 | 0.03 | 0.00 | 78 | 1021.5 |
| 20260503010546 | 74 | 159 | 3.0 | 6.0 | 0.00 | 0.03 | 0.00 | 78 | 1021.7 |
| 20260503010054 | 74 | 138 | 2.0 | 5.0 | 0.00 | 0.03 | 0.00 | 79 | 1021.8 |
| 20260503005546 | 74 | 129 | 2.0 | 7.0 | 0.00 | 0.03 | 0.00 | 79 | 1022.0 |
| 20260503005044 | 73 | 95 | 3.0 | 7.0 | 0.00 | 0.03 | 0.00 | 79 | 1021.9 |
| 20260503004553 | 73 | 201 | 2.0 | 7.0 | 0.00 | 0.03 | 0.00 | 79 | 1022.0 |
| 20260503004043 | 73 | 195 | 3.0 | 7.0 | 0.00 | 0.03 | 0.00 | 79 | 1022.1 |
| 20260503003543 | 73 | 193 | 0.0 | 4.0 | 0.00 | 0.03 | 0.00 | 80 | 1022.2 |
| 20260503003051 | 73 | 67 | 2.0 | 5.0 | 0.00 | 0.03 | 0.00 | 80 | 1022.2 |
| 20260503002543 | 73 | 154 | 2.0 | 5.0 | 0.00 | 0.03 | 0.00 | 81 | 1022.2 |
| 20260503002043 | 73 | 129 | 3.0 | 5.0 | 0.00 | 0.03 | 0.00 | 81 | 1022.3 |
| 20260503001608 | 72 | 235 | 1.0 | 4.0 | 0.00 | 0.03 | 0.00 | 82 | 1022.4 |
| 20260503001042 | 72 | 198 | 2.0 | 4.0 | 0.00 | 0.03 | 0.00 | 81 | 1022.4 |
| 20260503000544 | 72 | 0 | 0.0 | 0.0 | 0.00 | 0.03 | 0.00 | 82 | 1022.4 |
| 20260503000122 | 72 | 0 | 0.0 | 2.0 | 0.00 | 0.03 | 0.00 | 82 | 1022.3 |
| 20260502235546 | 72 | 0 | 0.0 | 2.0 | 0.00 | 0.03 | 0.00 | 83 | 1022.3 |
| 20260502235043 | 72 | 0 | 0.0 | 2.0 | 0.00 | 0.03 | 0.00 | 83 | 1022.4 |
| 20260502234606 | 71 | 0 | 0.0 | 2.0 | 0.00 | 0.03 | 0.00 | 85 | 1022.4 |
| 20260502234044 | 71 | 0 | 0.0 | 2.0 | 0.00 | 0.03 | 0.00 | 84 | 1022.5 |
| 20260502233544 | 71 | 0 | 0.0 | 4.0 | 0.00 | 0.03 | 0.00 | 86 | 1022.4 |
| 20260502233058 | 70 | 0 | 0.0 | 4.0 | 0.00 | 0.03 | 0.00 | 86 | 1022.5 |
| 20260502232543 | 70 | 176 | 0.0 | 4.0 | 0.00 | 0.03 | 0.00 | 85 | 1022.5 |
| 20260502232044 | 69 | 163 | 0.0 | 4.0 | 0.00 | 0.03 | 0.00 | 86 | 1022.6 |
| 20260502231559 | 69 | 0 | 0.0 | 4.0 | 0.00 | 0.03 | 0.00 | 85 | 1022.6 |
| 20260502231044 | 69 | 192 | 0.0 | 5.0 | 0.00 | 0.03 | 0.00 | 86 | 1022.7 |